SCP
0 0 0 0 0 0 0 0 0 0 0 0 0 0 0 0 0 1 0 1 1 1 1 0 0 0 0 0 -0 -0 0 0 -0 -0 -0 -0 -0 -0 0 0 0 0 0 0
0 0 0 0 0 0 0 0 0 0 0 0 0 0 0 0 1 1 1 0 1 1 1 0 0 0 0 0 0 0 -0 0 0 -0 -0 -0 0 -0 -0 0 0 0 0 0
0 0 0 0 0 0 0 0 0 0 0 0 0 1 1 1 1 1 1 1 1 0 0 0 0 0 0 0 0 0 0 0 0 0 0 0 0 0 0 0 0 0 0 0
0 0 0 0 0 0 0 0 0 1 1 0 0 0 1 1 1 1 1 0 0 1 1 0 0 0 0 0 0 0 0 0 0 0 0 0 0 0 0 0 0 0 -0 -0
0 0 0 0 1 1 0 0 1 0 0 0 0 0 1 1 1 1 0 0 1 1 1 0 0 0 0 0 0 0 0 0 0 0 0 0 0 -0 -0 0 0 -0 -0 0
0 0 0 0 0 1 0 0 0 0 0 0 0 0 1 1 1 0 0 0 1 1 1 0 0 0 0 -0 0 0 0 0 0 0 0 0 0 -0 -0 0 0 0 0 0
0 0 0 0 1 0 0 0 1 0 0 1 1 1 1 1 1 0 0 0 1 1 1 1 0 0 0 0 0 0 0 0 0 0 0 0 0 0 0 0 0 0 0 0
0 0 0 1 0 0 1 1 1 1 1 1 1 1 1 1 1 1 0 0 0 0 0 0 0 0 0 0 0 0 0 0 -0 0 0 0 0 0 0 0 0 0 0 0
0 0 1 1 2 1 2 2 2 1 1 1 1 1 1 1 1 1 0 0 0 0 0 0 0 0 0 0 0 0 0 0 0 0 0 0 0 0 0 0 0 0 0 0
0 1 2 2 2 2 2 3 2 1 1 1 1 1 1 1 1 1 1 0 0 0 0 0 0 0 0 0 0 0 0 0 0 0 0 0 0 0 0 0 0 0 0 0
0 1 1 1 2 2 2 2 2 1 1 1 1 1 1 0 0 0 1 0 0 0 0 0 0 0 0 0 0 0 0 0 0 0 0 0 0 0 0 0 0 0 0 0
1 1 2 2 2 2 2 2 1 1 2 2 1 1 1 0 0 0 0 0 0 0 0 0 0 0 0 0 0 0 0 0 0 0 0 0 0 0 0 0 0 0 0 0
1 1 1 1 1 2 2 1 2 1 1 1 1 0 0 0 0 0 0 0 0 0 0 0 0 0 0 0 0 0 0 0 0 0 0 0 0 0 0 0 0 0 0 0
1 1 1 1 1 1 1 1 1 1 1 1 0 0 0 0 0 0 0 0 0 0 0 0 0 0 0 0 0 0 0 0 0 0 0 0 0 0 0 0 0 0 0 0
1 0 0 1 1 1 1 1 1 1 1 1 0 0 0 0 0 0 0 0 0 0 -0 -0 0 0 0 0 0 0 0 0 0 0 0 0 0 0 0 0 0 0 0 0
0 0 0 0 1 1 0 0 0 0 -0 0 0 0 0 0 0 0 0 -0 -0 -0 -0 -0 0 0 0 0 0 0 0 0 0 0 0 0 0 0 0 0 0 0 0 0
0 0 0 0 0 0 0 0 0 0 0 0 0 0 0 0 0 0 0 0 0 0 0 0 0 0 0 0 0 0 0 0 0 0 0 0 0 0 0 0 0 0 0 0
0 0 0 0 0 0 0 0 0 0 0 0 0 0 0 0 0 0 0 0 0 0 0 0 0 0 0 0 0 0 0 0 0 0 0 0 0 0 0 0 0 0 0 0
0 0 0 0 0 0 0 0 0 0 0 0 0 0 0 0 0 0 0 0 0 0 0 0 0 0 0 0 0 0 0 0 0 0 0 0 0 0 0 0 0 0 0 0
0 0 0 0 0 0 0 0 0 0 0 0 0 0 0 0 0 0 0 0 0 0 0 0 0 0 0 0 0 0 0 0 0 0 0 0 0 0 0 0 0 0 0 0
0 0 0 0 0 0 0 0 0 0 0 0 0 0 0 0 0 0 0 0 0 0 0 0 0 0 0 0 0 0 0 0 0 0 0 0 0 0 0 0 0 0 0 0
0 0 0 0 0 0 0 0 0 0 0 0 0 0 0 0 0 0 0 0 0 0 0 0 0 0 0 0 0 0 0 0 0 0 0 0 0 0 0 0 0 0 0 0
0 0 0 0 0 0 0 0 0 0 0 0 0 0 0 0 0 0 0 0 0 0 0 0 0 0 0 0 0 0 0 0 0 0 0 0 0 0 0 0 0 0 0 0
0 0 0 0 0 0 0 0 0 0 0 0 0 0 0 0 0 0 0 0 0 0 0 0 0 0 0 0 0 0 0 0 0 0 0 0 0 0 0 0 0 0 0 0
0 0 0 0 0 0 0 0 0 0 0 0 0 0 0 0 0 0 0 0 0 0 0 0 0 0 0 0 0 0 0 0 0 0 0 0 0 0 0 0 0 0 0 0
0 0 0 0 0 0 0 0 0 0 0 0 0 0 0 0 0 0 0 0 0 0 0 0 0 0 0 0 0 0 0 0 0 0 0 0 0 0 0 0 0 0 0 0
0 0 0 0 0 0 0 0 0 0 0 0 -0 0 0 0 0 0 0 0 0 0 0 0 0 0 0 0 0 0 0 0 0 0 0 0 0 0 0 0 0 0 0 0
Wind_Speed_500mb
31 6 9 13 24 27 27 23 16 13 13 16 7 8 4 15 20 21 16 15 18 27 37 36 26 26 28 33 38 38 33 28 26 24 21 16 14 13 13 13 15 17 16 16
35 26 27 18 16 21 19 12 7 4 9 8 5 9 14 17 17 15 11 9 14 21 33 39 41 26 27 29 32 40 37 27 24 27 22 18 17 14 16 15 14 15 14 14
32 19 24 28 27 28 23 21 9 15 16 5 8 14 15 12 6 6 7 7 15 19 28 35 28 28 27 29 35 32 36 26 23 24 23 21 19 18 20 18 15 16 14 15
20 16 28 8 9 15 21 17 10 9 16 10 14 15 15 9 4 2 3 4 9 16 22 31 24 26 38 34 38 32 30 28 22 26 20 23 20 22 26 21 17 16 15 15
14 25 7 15 15 17 25 22 11 13 17 19 21 22 11 6 7 3 4 3 6 14 21 30 24 25 23 23 41 31 28 27 30 22 21 22 20 20 25 24 21 15 15 15
12 19 21 25 17 10 7 17 11 11 18 21 21 15 14 2 4 11 6 6 11 17 26 24 22 17 15 34 41 36 35 34 28 23 20 23 22 24 26 28 23 17 14 16
17 13 12 16 10 11 18 11 14 11 13 11 6 10 13 9 3 5 8 9 20 31 30 34 26 19 20 35 37 32 30 38 32 33 36 28 19 19 26 32 27 22 19 16
4 10 11 3 9 9 10 10 9 17 15 12 16 17 16 11 11 12 13 18 18 19 23 29 30 29 32 33 36 38 42 39 33 30 30 33 25 21 31 38 28 19 22 18
11 10 6 5 8 6 6 8 8 14 18 21 18 15 16 13 13 17 17 18 19 15 9 4 8 13 28 36 37 40 39 35 29 30 30 28 27 31 36 38 32 26 28 20
6 9 9 6 6 7 7 7 6 15 17 12 17 17 18 13 9 9 13 13 12 11 8 5 5 8 10 16 21 20 24 27 29 27 25 26 24 30 36 39 32 24 26 19
3 4 2 4 5 6 8 7 15 17 16 16 14 16 13 10 8 9 8 7 8 10 10 11 9 10 12 15 19 23 25 24 24 22 19 24 28 32 36 38 32 28 24 21
8 7 3 9 5 4 7 12 17 21 19 14 14 15 14 11 9 8 7 4 5 5 6 15 16 13 16 16 17 19 19 16 15 20 25 27 30 34 32 27 29 24 24 23
7 2 5 8 7 12 16 20 22 22 21 23 20 18 15 14 10 9 5 2 1 2 4 8 6 9 13 13 18 22 21 21 20 23 27 31 32 32 35 36 27 25 23 20
9 8 8 5 10 16 17 22 24 22 21 19 16 14 12 10 10 8 6 5 6 6 6 8 8 10 11 12 16 19 22 23 23 28 26 30 29 25 25 22 22 25 24 21
6 7 6 6 10 12 14 19 19 19 16 12 11 10 8 4 3 3 5 6 8 9 12 13 15 16 16 13 14 18 16 20 23 27 23 23 23 23 21 21 19 19 20 20
9 7 5 2 8 10 12 14 20 8 11 10 6 5 5 3 4 5 8 9 10 12 16 19 20 20 24 19 17 17 19 28 26 24 26 24 23 24 25 25 25 23 21 19
11 12 5 5 7 9 9 8 6 5 7 6 9 10 9 11 13 14 16 17 18 19 22 22 23 22 22 24 20 20 22 24 29 23 21 24 26 27 28 28 28 25 24 23
5 5 4 4 3 3 3 6 8 11 11 12 14 15 16 17 19 20 22 22 25 26 26 24 26 23 24 24 23 27 26 26 26 25 26 28 30 29 28 26 25 23 21 21
14 10 8 8 8 7 11 14 16 17 18 20 21 21 21 21 22 23 24 25 27 29 30 27 32 30 25 20 22 34 31 31 29 28 28 30 32 29 28 25 23 21 20 19
12 11 11 12 12 14 17 20 23 26 26 28 30 31 32 31 29 29 28 31 34 34 33 25 32 31 28 24 21 32 33 36 36 31 29 32 33 30 27 25 22 22 23 23
16 17 18 18 20 21 22 25 28 31 33 33 35 37 39 40 38 36 38 41 37 31 31 30 29 28 30 28 25 37 38 37 37 37 33 35 34 29 27 25 25 24 20 19
22 22 21 22 23 24 22 23 27 32 34 35 36 38 39 40 40 40 40 44 43 41 34 31 29 35 35 33 28 37 39 38 42 38 38 37 34 32 30 27 25 24 22 19
24 23 21 20 21 23 23 26 27 28 29 31 33 32 35 34 38 42 42 31 30 35 37 33 38 38 37 38 32 30 36 36 37 41 40 38 33 31 28 30 29 27 24 22
18 16 16 17 16 17 18 19 21 24 25 24 23 26 32 38 40 28 34 34 35 47 42 30 37 35 40 39 42 37 44 42 38 36 41 45 34 25 38 34 29 32 29 29
13 11 8 9 10 9 15 18 16 20 26 24 24 30 35 35 38 42 39 37 34 31 28 34 34 31 40 46 46 40 38 40 39 39 34 32 44 43 37 34 34 32 33 25
7 5 6 8 8 12 11 9 10 15 15 19 26 31 30 28 28 24 20 22 19 18 29 23 27 28 35 39 41 40 33 23 35 45 45 41 32 29 34 30 30 22 15 18
6 3 4 2 4 3 5 8 11 14 23 29 29 34 33 32 27 22 14 7 4 18 16 18 22 30 36 42 42 35 34 36 33 32 30 28 29 23 10 10 14 15 17 20
Wind_Direction_500mb
244 246 248 244 191 196 221 235 232 217 195 83 38 11 95 135 136 133 143 159 185 186 187 183 183 186 173 170 165 176 191 207 200 199 184 179 175 170 159 129 106 96 93 93
233 226 239 232 208 196 211 219 214 245 138 75 62 106 137 141 139 132 143 164 195 192 200 191 184 194 186 181 182 176 183 207 201 196 199 194 188 198 176 154 137 115 104 107
231 205 219 227 214 211 200 192 218 214 78 112 107 114 129 144 148 123 126 161 194 203 200 195 193 193 201 194 192 192 189 202 209 197 205 209 204 195 197 181 171 157 142 131
233 189 218 113 152 213 203 187 182 121 97 110 133 123 116 101 57 95 81 171 201 199 191 194 194 201 218 213 200 199 203 200 215 206 207 212 215 206 205 204 199 181 169 154
200 214 109 146 171 183 187 173 148 121 124 137 139 127 84 23 22 357 301 211 157 176 179 185 193 210 238 211 197 198 207 208 221 223 210 229 249 218 213 214 206 195 183 178
197 210 214 137 132 160 172 152 121 131 143 162 165 221 111 32 5 298 324 168 171 156 164 167 189 209 191 186 189 199 198 210 216 216 236 250 255 231 222 209 197 188 197 196
193 209 93 110 130 153 207 101 119 140 147 159 194 47 113 124 49 30 62 145 163 155 179 194 211 193 178 190 205 208 213 209 224 229 240 249 243 232 224 208 201 196 204 195
233 214 143 108 179 243 36 84 94 141 142 125 124 120 117 109 85 69 88 97 119 148 182 205 213 214 202 210 224 221 229 221 223 217 237 252 247 234 221 215 209 206 196 189
344 51 60 30 44 37 27 47 102 140 134 134 132 124 126 118 85 78 81 90 91 97 102 130 197 199 213 220 225 229 231 222 220 233 243 237 228 219 216 211 200 208 195 195
263 88 64 59 51 75 60 71 116 140 135 129 132 135 133 121 113 92 80 74 70 62 51 354 294 264 231 221 225 226 227 232 236 239 235 226 208 197 204 205 208 208 200 200
228 154 127 126 97 67 53 79 135 151 130 129 138 134 131 131 137 121 112 78 60 40 30 28 347 312 272 232 229 229 235 239 241 237 219 201 188 187 198 212 196 215 215 206
30 44 337 107 122 90 120 110 125 127 124 118 130 131 128 136 133 129 134 105 64 39 40 17 355 325 274 252 242 241 234 220 206 209 206 196 191 187 183 202 196 203 208 214
9 108 119 144 148 137 120 104 110 117 118 117 120 124 128 133 136 152 125 118 226 299 334 350 351 320 318 268 248 238 220 215 208 195 194 195 198 205 214 189 206 210 211 214
102 107 119 144 170 153 127 107 107 113 117 120 123 126 130 133 132 147 170 217 240 250 276 287 282 272 297 283 264 243 226 219 195 191 187 192 192 193 195 199 196 206 212 225
151 47 27 91 114 125 127 123 110 102 95 94 110 118 115 119 144 174 200 212 231 249 260 261 264 259 278 278 259 248 219 208 194 186 184 182 181 180 182 181 181 183 193 194
300 272 334 165 122 127 124 120 89 66 91 76 261 57 34 347 309 276 255 240 235 262 262 256 259 251 256 261 260 231 210 199 186 190 191 177 177 176 176 170 169 168 159 166
300 242 244 161 134 117 106 92 91 64 53 45 20 13 356 328 313 300 290 272 268 269 267 261 258 250 249 260 249 213 214 206 176 182 175 174 169 165 162 159 159 157 158 161
106 89 93 119 114 77 35 33 25 18 9 351 341 339 332 324 314 306 303 291 282 280 276 265 260 239 239 257 242 193 205 201 190 187 184 177 170 168 166 167 165 165 167 171
75 76 60 48 26 357 337 334 333 327 324 321 317 312 308 305 302 298 296 293 289 288 289 275 260 255 235 269 241 202 199 204 196 192 192 188 182 183 181 185 185 189 191 202
27 17 2 347 333 324 313 307 303 302 302 301 299 298 295 291 289 288 288 282 280 279 284 281 265 245 231 230 235 214 199 205 197 202 198 195 194 195 199 203 205 211 213 215
343 337 331 323 314 308 302 298 298 297 297 295 292 290 288 286 284 283 281 279 278 276 278 270 263 234 228 227 234 213 201 207 208 207 207 206 208 204 211 214 215 214 215 216
319 316 312 310 308 307 305 301 299 300 300 299 294 291 289 287 284 279 273 269 270 273 262 265 252 236 226 230 221 220 206 217 216 204 206 214 200 220 220 214 220 208 213 225
308 307 307 311 306 304 304 304 302 301 302 301 297 293 289 288 288 289 288 282 264 261 255 250 250 250 244 227 217 219 203 219 205 204 209 205 198 215 233 230 230 217 232 250
304 304 301 298 303 297 302 314 311 311 318 317 324 321 312 306 298 295 297 294 271 257 257 252 249 249 243 221 211 212 208 203 194 193 193 194 196 234 250 238 233 228 245 264
298 291 307 309 321 327 331 326 323 327 326 331 325 315 310 305 292 290 277 283 273 265 249 238 241 239 212 224 225 225 222 211 205 201 208 236 215 240 239 235 236 253 262 262
316 291 283 306 331 338 331 335 330 346 9 5 7 1 354 345 330 308 287 286 275 239 216 234 212 212 215 195 177 174 178 216 210 209 223 225 217 212 228 245 264 255 229 222
313 274 300 352 70 43 6 38 59 44 35 34 23 27 27 24 23 22 19 10 199 197 214 191 184 195 197 203 205 212 217 217 207 202 202 203 214 227 228 206 224 228 229 237
Wind_Speed_850mb
31 6 9 13 24 27 27 23 16 13 13 16 7 8 4 15 20 21 16 15 18 27 37 36 26 26 28 33 38 38 33 28 26 24 21 16 14 13 13 13 15 17 16 16
35 26 27 18 16 21 19 12 7 4 9 8 5 9 14 17 17 15 11 9 14 21 33 39 41 26 27 29 32 40 37 27 24 27 22 18 17 14 16 15 14 15 14 14
32 19 24 28 27 28 23 21 9 15 16 5 8 14 15 12 6 6 7 7 15 19 28 35 28 28 27 29 35 32 36 26 23 24 23 21 19 18 20 18 15 16 14 15
20 16 28 8 9 15 21 17 10 9 16 10 14 15 15 9 4 2 3 4 9 16 22 31 24 26 38 34 38 32 30 28 22 26 20 23 20 22 26 21 17 16 15 15
14 25 7 15 15 17 25 22 11 13 17 19 21 22 11 6 7 3 4 3 6 14 21 30 24 25 23 23 41 31 28 27 30 22 21 22 20 20 25 24 21 15 15 15
12 19 21 25 17 10 7 17 11 11 18 21 21 15 14 2 4 11 6 6 11 17 26 24 22 17 15 34 41 36 35 34 28 23 20 23 22 24 26 28 23 17 14 16
17 13 12 16 10 11 18 11 14 11 13 11 6 10 13 9 3 5 8 9 20 31 30 34 26 19 20 35 37 32 30 38 32 33 36 28 19 19 26 32 27 22 19 16
4 10 11 3 9 9 10 10 9 17 15 12 16 17 16 11 11 12 13 18 18 19 23 29 30 29 32 33 36 38 42 39 33 30 30 33 25 21 31 38 28 19 22 18
11 10 6 5 8 6 6 8 8 14 18 21 18 15 16 13 13 17 17 18 19 15 9 4 8 13 28 36 37 40 39 35 29 30 30 28 27 31 36 38 32 26 28 20
6 9 9 6 6 7 7 7 6 15 17 12 17 17 18 13 9 9 13 13 12 11 8 5 5 8 10 16 21 20 24 27 29 27 25 26 24 30 36 39 32 24 26 19
3 4 2 4 5 6 8 7 15 17 16 16 14 16 13 10 8 9 8 7 8 10 10 11 9 10 12 15 19 23 25 24 24 22 19 24 28 32 36 38 32 28 24 21
8 7 3 9 5 4 7 12 17 21 19 14 14 15 14 11 9 8 7 4 5 5 6 15 16 13 16 16 17 19 19 16 15 20 25 27 30 34 32 27 29 24 24 23
7 2 5 8 7 12 16 20 22 22 21 23 20 18 15 14 10 9 5 2 1 2 4 8 6 9 13 13 18 22 21 21 20 23 27 31 32 32 35 36 27 25 23 20
9 8 8 5 10 16 17 22 24 22 21 19 16 14 12 10 10 8 6 5 6 6 6 8 8 10 11 12 16 19 22 23 23 28 26 30 29 25 25 22 22 25 24 21
6 7 6 6 10 12 14 19 19 19 16 12 11 10 8 4 3 3 5 6 8 9 12 13 15 16 16 13 14 18 16 20 23 27 23 23 23 23 21 21 19 19 20 20
9 7 5 2 8 10 12 14 20 8 11 10 6 5 5 3 4 5 8 9 10 12 16 19 20 20 24 19 17 17 19 28 26 24 26 24 23 24 25 25 25 23 21 19
11 12 5 5 7 9 9 8 6 5 7 6 9 10 9 11 13 14 16 17 18 19 22 22 23 22 22 24 20 20 22 24 29 23 21 24 26 27 28 28 28 25 24 23
5 5 4 4 3 3 3 6 8 11 11 12 14 15 16 17 19 20 22 22 25 26 26 24 26 23 24 24 23 27 26 26 26 25 26 28 30 29 28 26 25 23 21 21
14 10 8 8 8 7 11 14 16 17 18 20 21 21 21 21 22 23 24 25 27 29 30 27 32 30 25 20 22 34 31 31 29 28 28 30 32 29 28 25 23 21 20 19
12 11 11 12 12 14 17 20 23 26 26 28 30 31 32 31 29 29 28 31 34 34 33 25 32 31 28 24 21 32 33 36 36 31 29 32 33 30 27 25 22 22 23 23
16 17 18 18 20 21 22 25 28 31 33 33 35 37 39 40 38 36 38 41 37 31 31 30 29 28 30 28 25 37 38 37 37 37 33 35 34 29 27 25 25 24 20 19
22 22 21 22 23 24 22 23 27 32 34 35 36 38 39 40 40 40 40 44 43 41 34 31 29 35 35 33 28 37 39 38 42 38 38 37 34 32 30 27 25 24 22 19
24 23 21 20 21 23 23 26 27 28 29 31 33 32 35 34 38 42 42 31 30 35 37 33 38 38 37 38 32 30 36 36 37 41 40 38 33 31 28 30 29 27 24 22
18 16 16 17 16 17 18 19 21 24 25 24 23 26 32 38 40 28 34 34 35 47 42 30 37 35 40 39 42 37 44 42 38 36 41 45 34 25 38 34 29 32 29 29
13 11 8 9 10 9 15 18 16 20 26 24 24 30 35 35 38 42 39 37 34 31 28 34 34 31 40 46 46 40 38 40 39 39 34 32 44 43 37 34 34 32 33 25
7 5 6 8 8 12 11 9 10 15 15 19 26 31 30 28 28 24 20 22 19 18 29 23 27 28 35 39 41 40 33 23 35 45 45 41 32 29 34 30 30 22 15 18
6 3 4 2 4 3 5 8 11 14 23 29 29 34 33 32 27 22 14 7 4 18 16 18 22 30 36 42 42 35 34 36 33 32 30 28 29 23 10 10 14 15 17 20
Wind_Direction_850mb
244 246 248 244 191 196 221 235 232 217 195 83 38 11 95 135 136 133 143 159 185 186 187 183 183 186 173 170 165 176 191 207 200 199 184 179 175 170 159 129 106 96 93 93
233 226 239 232 208 196 211 219 214 245 138 75 62 106 137 141 139 132 143 164 195 192 200 191 184 194 186 181 182 176 183 207 201 196 199 194 188 198 176 154 137 115 104 107
231 205 219 227 214 211 200 192 218 214 78 112 107 114 129 144 148 123 126 161 194 203 200 195 193 193 201 194 192 192 189 202 209 197 205 209 204 195 197 181 171 157 142 131
233 189 218 113 152 213 203 187 182 121 97 110 133 123 116 101 57 95 81 171 201 199 191 194 194 201 218 213 200 199 203 200 215 206 207 212 215 206 205 204 199 181 169 154
200 214 109 146 171 183 187 173 148 121 124 137 139 127 84 23 22 357 301 211 157 176 179 185 193 210 238 211 197 198 207 208 221 223 210 229 249 218 213 214 206 195 183 178
197 210 214 137 132 160 172 152 121 131 143 162 165 221 111 32 5 298 324 168 171 156 164 167 189 209 191 186 189 199 198 210 216 216 236 250 255 231 222 209 197 188 197 196
193 209 93 110 130 153 207 101 119 140 147 159 194 47 113 124 49 30 62 145 163 155 179 194 211 193 178 190 205 208 213 209 224 229 240 249 243 232 224 208 201 196 204 195
233 214 143 108 179 243 36 84 94 141 142 125 124 120 117 109 85 69 88 97 119 148 182 205 213 214 202 210 224 221 229 221 223 217 237 252 247 234 221 215 209 206 196 189
344 51 60 30 44 37 27 47 102 140 134 134 132 124 126 118 85 78 81 90 91 97 102 130 197 199 213 220 225 229 231 222 220 233 243 237 228 219 216 211 200 208 195 195
263 88 64 59 51 75 60 71 116 140 135 129 132 135 133 121 113 92 80 74 70 62 51 354 294 264 231 221 225 226 227 232 236 239 235 226 208 197 204 205 208 208 200 200
228 154 127 126 97 67 53 79 135 151 130 129 138 134 131 131 137 121 112 78 60 40 30 28 347 312 272 232 229 229 235 239 241 237 219 201 188 187 198 212 196 215 215 206
30 44 337 107 122 90 120 110 125 127 124 118 130 131 128 136 133 129 134 105 64 39 40 17 355 325 274 252 242 241 234 220 206 209 206 196 191 187 183 202 196 203 208 214
9 108 119 144 148 137 120 104 110 117 118 117 120 124 128 133 136 152 125 118 226 299 334 350 351 320 318 268 248 238 220 215 208 195 194 195 198 205 214 189 206 210 211 214
102 107 119 144 170 153 127 107 107 113 117 120 123 126 130 133 132 147 170 217 240 250 276 287 282 272 297 283 264 243 226 219 195 191 187 192 192 193 195 199 196 206 212 225
151 47 27 91 114 125 127 123 110 102 95 94 110 118 115 119 144 174 200 212 231 249 260 261 264 259 278 278 259 248 219 208 194 186 184 182 181 180 182 181 181 183 193 194
300 272 334 165 122 127 124 120 89 66 91 76 261 57 34 347 309 276 255 240 235 262 262 256 259 251 256 261 260 231 210 199 186 190 191 177 177 176 176 170 169 168 159 166
300 242 244 161 134 117 106 92 91 64 53 45 20 13 356 328 313 300 290 272 268 269 267 261 258 250 249 260 249 213 214 206 176 182 175 174 169 165 162 159 159 157 158 161
106 89 93 119 114 77 35 33 25 18 9 351 341 339 332 324 314 306 303 291 282 280 276 265 260 239 239 257 242 193 205 201 190 187 184 177 170 168 166 167 165 165 167 171
75 76 60 48 26 357 337 334 333 327 324 321 317 312 308 305 302 298 296 293 289 288 289 275 260 255 235 269 241 202 199 204 196 192 192 188 182 183 181 185 185 189 191 202
27 17 2 347 333 324 313 307 303 302 302 301 299 298 295 291 289 288 288 282 280 279 284 281 265 245 231 230 235 214 199 205 197 202 198 195 194 195 199 203 205 211 213 215
343 337 331 323 314 308 302 298 298 297 297 295 292 290 288 286 284 283 281 279 278 276 278 270 263 234 228 227 234 213 201 207 208 207 207 206 208 204 211 214 215 214 215 216
319 316 312 310 308 307 305 301 299 300 300 299 294 291 289 287 284 279 273 269 270 273 262 265 252 236 226 230 221 220 206 217 216 204 206 214 200 220 220 214 220 208 213 225
308 307 307 311 306 304 304 304 302 301 302 301 297 293 289 288 288 289 288 282 264 261 255 250 250 250 244 227 217 219 203 219 205 204 209 205 198 215 233 230 230 217 232 250
304 304 301 298 303 297 302 314 311 311 318 317 324 321 312 306 298 295 297 294 271 257 257 252 249 249 243 221 211 212 208 203 194 193 193 194 196 234 250 238 233 228 245 264
298 291 307 309 321 327 331 326 323 327 326 331 325 315 310 305 292 290 277 283 273 265 249 238 241 239 212 224 225 225 222 211 205 201 208 236 215 240 239 235 236 253 262 262
316 291 283 306 331 338 331 335 330 346 9 5 7 1 354 345 330 308 287 286 275 239 216 234 212 212 215 195 177 174 178 216 210 209 223 225 217 212 228 245 264 255 229 222
313 274 300 352 70 43 6 38 59 44 35 34 23 27 27 24 23 22 19 10 199 197 214 191 184 195 197 203 205 212 217 217 207 202 202 203 214 227 228 206 224 228 229 237